FW3914 Weather Reports


Display with metric or nautical units.
time (UTC)temp
F
wind
direction
speed
MPH
gust
MPH
rain 1hr
in
rain 24hr
in
rain mn
in
humidity
%
barometer
mb
20260504195618 83 235 4.0 11.0 0.00 0.00 0.00 54 1009.4
20260504195115 82 231 5.0 22.0 0.00 0.00 0.00 52 1009.5
20260504194612 82 274 3.0 13.0 0.00 0.00 0.00 52 1009.5
20260504194107 82 173 4.0 14.0 0.00 0.00 0.00 51 1009.8
20260504193604 83 231 4.0 12.0 0.00 0.00 0.00 51 1009.6
20260504193102 82 252 3.0 15.0 0.00 0.00 0.00 52 1009.9
20260504192600 81 84 5.0 15.0 0.00 0.00 0.00 51 1009.7
20260504192058 81 67 4.0 9.0 0.00 0.00 0.00 52 1009.8
20260504191556 81 242 6.0 14.0 0.00 0.00 0.00 51 1010.2
20260504191052 81 216 4.0 16.0 0.00 0.00 0.00 51 1010.2
20260504190548 82 250 4.0 10.0 0.00 0.00 0.00 51 1010.2
20260504190044 81 214 3.0 12.0 0.00 0.00 0.00 51 1010.2
20260504185542 81 229 1.0 9.0 0.00 0.00 0.00 51 1010.4
20260504185038 80 144 5.0 16.0 0.00 0.00 0.00 50 1010.3
20260504184533 80 216 4.0 12.0 0.00 0.00 0.00 50 1010.1
20260504184029 81 247 3.0 17.0 0.00 0.00 0.00 50 1010.4
20260504183526 80 209 4.0 13.0 0.00 0.00 0.00 50 1010.5
20260504183025 80 223 4.0 18.0 0.00 0.00 0.00 48 1010.7
20260504182521 80 223 5.0 13.0 0.00 0.00 0.00 49 1010.6
20260504182018 79 189 5.0 15.0 0.00 0.00 0.00 50 1010.8
20260504181515 80 206 7.0 14.0 0.00 0.00 0.00 48 1010.8
20260504181014 80 206 4.0 13.0 0.00 0.00 0.00 49 1010.9
20260504180512 78 226 7.0 15.0 0.00 0.00 0.00 49 1010.8
20260504180011 79 271 7.0 12.0 0.00 0.00 0.00 49 1011.1
20260504175508 79 149 7.0 15.0 0.00 0.00 0.00 49 1010.9
20260504175005 80 219 5.0 9.0 0.00 0.00 0.00 51 1011.2
20260504174502 79 254 2.0 10.0 0.00 0.00 0.00 50 1011.7
20260504173959 78 228 5.0 16.0 0.00 0.00 0.00 49 1011.6
20260504173456 78 180 7.0 11.0 0.00 0.00 0.00 50 1011.6
20260504172953 77 188 4.0 19.0 0.00 0.00 0.00 51 1011.6
20260504172449 77 180 4.0 20.0 0.00 0.00 0.00 50 1011.5
20260504171946 77 115 4.0 14.0 0.00 0.00 0.00 52 1011.7
20260504171443 77 165 4.0 16.0 0.00 0.00 0.00 52 1011.9
20260504170940 78 173 6.0 14.0 0.00 0.00 0.00 53 1012.0
20260504170436 77 236 3.0 12.0 0.00 0.00 0.00 52 1012.2
20260504160355 75 171 7.0 15.0 0.00 0.00 0.00 54 1012.8
20260504150820 72 194 6.0 16.0 0.00 0.00 0.00 61 1013.2
20260504150316 71 190 2.0 16.0 0.00 0.00 0.00 64 1012.9
20260504141247 69 279 2.0 9.0 0.00 0.00 0.00 67 1013.4
20260504140743 69 213 4.0 11.0 0.00 0.00 0.00 67 1013.3
20260504140239 68 199 6.0 10.0 0.00 0.00 0.00 68 1013.3
20260504130708 65 157 2.0 7.0 0.00 0.00 0.00 73 1013.4
20260504130203 65 202 2.0 4.0 0.00 0.00 0.00 74 1013.5
20260504120127 61 227 1.0 3.0 0.00 0.00 0.00 78 1013.0
20260504110555 61 289 1.0 3.0 0.00 0.00 0.00 77 1012.9
20260504100516 62 206 3.0 8.0 0.00 0.00 0.00 74 1013.4
20260504081910 65 213 6.0 11.0 0.00 0.00 0.00 65 1013.7
20260504081406 65 202 3.0 7.0 0.00 0.00 0.00 64 1013.7
20260504080902 65 204 1.0 9.0 0.00 0.00 0.00 62 1013.8
20260504080400 65 211 3.0 9.0 0.00 0.00 0.00 62 1013.5
20260504070327 65 210 2.0 4.0 0.00 0.00 0.00 63 1014.5
20260504060247 66 180 0.0 6.0 0.00 0.00 0.00 61 1015.1
20260504050715 68 187 2.0 5.0 0.00 0.00 0.00 58 1015.7
20260504050212 68 249 0.0 5.0 0.00 0.00 0.00 57 1015.8
20260504045709 68 214 3.0 6.0 0.00 0.00 0.00 57 1015.9
20260504045204 68 202 2.0 6.0 0.00 0.00 0.00 56 1015.8
20260504044702 68 255 1.0 7.0 0.00 0.00 0.00 56 1016.0
20260504044159 68 193 2.0 5.0 0.00 0.00 0.00 56 1015.7
20260504043655 68 109 3.0 5.0 0.00 0.00 0.00 56 1016.0
20260504043152 68 196 3.0 5.0 0.00 0.00 0.00 56 1015.8
20260504042650 68 189 3.0 8.0 0.00 0.00 0.00 56 1015.9
20260504042146 68 166 4.0 6.0 0.00 0.00 0.00 56 1015.9
20260504041642 68 269 0.0 5.0 0.00 0.00 0.00 56 1015.9
20260504041138 68 252 2.0 5.0 0.00 0.00 0.00 56 1015.9
20260504040636 68 230 3.0 4.0 0.00 0.00 0.00 56 1016.1
20260504040133 69 234 2.0 5.0 0.00 0.00 0.00 55 1016.0
20260504035629 69 200 2.0 5.0 0.00 0.00 0.00 55 1016.0
20260504035126 69 218 1.0 4.0 0.00 0.00 0.00 55 1015.9
20260504034624 69 213 3.0 4.0 0.00 0.00 0.00 54 1015.8
20260504034120 69 255 0.0 3.0 0.00 0.00 0.00 54 1016.1
20260504033618 69 228 2.0 6.0 0.00 0.00 0.00 54 1015.9
20260504033115 69 187 2.0 5.0 0.00 0.00 0.00 54 1015.7
20260504032612 69 224 3.0 6.0 0.00 0.00 0.00 53 1015.8
20260504032109 69 203 1.0 4.0 0.00 0.00 0.00 53 1015.9
20260504031606 69 242 2.0 4.0 0.00 0.00 0.00 53 1015.9
20260504031102 70 250 2.0 5.0 0.00 0.00 0.00 52 1015.9
20260504030559 70 223 0.0 3.0 0.00 0.00 0.00 52 1015.7
20260504030056 70 228 2.0 5.0 0.00 0.00 0.00 52 1015.7
20260504025553 70 237 1.0 3.0 0.00 0.00 0.00 51 1015.7
20260504025050 71 242 3.0 5.0 0.00 0.00 0.00 51 1015.6
20260504024547 71 235 2.0 4.0 0.00 0.00 0.00 50 1015.8
20260504024044 71 225 2.0 5.0 0.00 0.00 0.00 50 1015.9
20260504023540 71 164 2.0 4.0 0.00 0.00 0.00 50 1015.9
20260504023036 71 226 2.0 5.0 0.00 0.00 0.00 49 1015.7
20260504022532 71 249 0.0 4.0 0.00 0.00 0.00 49 1015.7
20260504022029 72 206 2.0 5.0 0.00 0.00 0.00 49 1015.9
20260504021526 72 257 1.0 5.0 0.00 0.00 0.00 48 1015.9
20260504021023 72 196 4.0 7.0 0.00 0.00 0.00 48 1015.7
20260504020520 72 224 3.0 5.0 0.00 0.00 0.00 47 1015.8
20260504020017 72 201 4.0 7.0 0.00 0.00 0.00 47 1015.5
20260504015513 73 177 2.0 5.0 0.00 0.00 0.00 46 1015.6
20260504015009 73 143 2.0 5.0 0.00 0.00 0.00 46 1015.7
20260504014505 73 250 2.0 5.0 0.00 0.00 0.00 45 1015.6
20260504014003 73 228 3.0 7.0 0.00 0.00 0.00 45 1015.6
20260504013501 73 202 5.0 6.0 0.00 0.00 0.00 45 1015.8
20260504012956 74 250 3.0 5.0 0.00 0.00 0.00 44 1015.7
20260504012454 74 224 3.0 5.0 0.00 0.00 0.00 44 1015.5
20260504011952 74 238 2.0 5.0 0.00 0.00 0.00 43 1015.2
20260504011448 74 214 3.0 6.0 0.00 0.00 0.00 43 1015.2
20260504010944 75 230 1.0 4.0 0.00 0.00 0.00 42 1015.2
20260504010440 75 281 0.0 7.0 0.00 0.00 0.00 42 1015.1
20260504005936 75 262 0.0 4.0 0.00 0.00 0.00 41 1015.1
20260504005433 75 219 4.0 7.0 0.00 0.00 0.00 41 1015.1
20260504004931 76 263 1.0 9.0 0.00 0.00 0.00 41 1015.2
20260504004428 76 243 3.0 5.0 0.00 0.00 0.00 40 1015.3
20260504003925 77 201 3.0 7.0 0.00 0.00 0.00 39 1015.3
20260504003421 77 206 0.0 8.0 0.00 0.00 0.00 39 1015.2
20260504002918 78 204 3.0 8.0 0.00 0.00 0.00 38 1015.2
20260504002415 79 201 4.0 11.0 0.00 0.00 0.00 38 1014.9
20260504001913 80 263 2.0 5.0 0.00 0.00 0.00 38 1015.3
20260504001410 80 250 1.0 5.0 0.00 0.00 0.00 36 1015.3
20260504000906 80 208 5.0 8.0 0.00 0.00 0.00 36 1015.5
20260504000404 80 234 2.0 9.0 0.00 0.00 0.00 36 1015.6
20260503235901 81 238 6.0 10.0 0.00 0.00 0.00 36 1015.3
20260503235359 81 224 3.0 8.0 0.00 0.00 0.00 36 1015.5
20260503234856 82 224 5.0 8.0 0.00 0.00 0.00 36 1015.3
20260503234354 82 223 6.0 10.0 0.00 0.00 0.00 34 1015.2
20260503233851 82 188 3.0 7.0 0.00 0.00 0.00 35 1015.7
20260503233347 82 179 5.0 7.0 0.00 0.00 0.00 34 1015.5
20260503232844 82 249 3.0 7.0 0.00 0.00 0.00 35 1015.7
20260503232341 83 195 3.0 12.0 0.00 0.00 0.00 34 1015.5
20260503231839 84 238 3.0 9.0 0.00 0.00 0.00 32 1015.6
20260503231336 84 216 3.0 11.0 0.00 0.00 0.00 32 1015.6
20260503230832 84 258 2.0 10.0 0.00 0.00 0.00 33 1016.0
20260503230329 84 209 5.0 10.0 0.00 0.00 0.00 31 1015.6
20260503225827 84 209 4.0 8.0 0.00 0.00 0.00 31 1015.9
20260503225322 84 200 7.0 11.0 0.00 0.00 0.00 30 1015.5
20260503224818 84 218 5.0 11.0 0.00 0.00 0.00 30 1016.0
20260503224316 83 257 3.0 10.0 0.00 0.00 0.00 30 1015.8
20260503223814 83 194 5.0 13.0 0.00 0.00 0.00 32 1015.7
20260503223311 84 212 3.0 9.0 0.00 0.00 0.00 32 1015.9
20260503222807 82 237 3.0 8.0 0.00 0.00 0.00 33 1016.1
20260503222306 84 249 2.0 12.0 0.00 0.00 0.00 33 1016.2
20260503221803 85 253 2.0 13.0 0.00 0.00 0.00 32 1016.0
20260503221301 85 221 4.0 9.0 0.00 0.00 0.00 32 1016.1
20260503220757 86 228 3.0 8.0 0.00 0.00 0.00 31 1016.4
20260503220254 85 186 4.0 7.0 0.00 0.00 0.00 32 1016.0
20260503215751 85 249 2.0 13.0 0.00 0.00 0.00 32 1016.2
20260503215248 85 201 5.0 8.0 0.00 0.00 0.00 31 1016.1
20260503214746 84 226 2.0 8.0 0.00 0.00 0.00 32 1016.2
20260503214242 85 269 3.0 9.0 0.00 0.00 0.00 30 1016.5
20260503213741 86 264 5.0 13.0 0.00 0.00 0.00 31 1016.5
20260503213238 86 202 2.0 10.0 0.00 0.00 0.00 31 1016.5
20260503212734 85 200 3.0 11.0 0.00 0.00 0.00 31 1016.5
20260503212232 86 234 4.0 11.0 0.00 0.00 0.00 31 1016.7
20260503211730 86 260 3.0 6.0 0.00 0.00 0.00 31 1016.5
20260503211225 85 202 4.0 9.0 0.00 0.00 0.00 30 1016.8
20260503210721 85 225 3.0 10.0 0.00 0.00 0.00 30 1016.8
20260503210219 85 226 1.0 7.0 0.00 0.00 0.00 31 1016.9
20260503205714 85 199 5.0 8.0 0.00 0.00 0.00 32 1016.9
20260503205210 85 194 2.0 12.0 0.00 0.00 0.00 32 1017.1
20260503204707 86 243 5.0 11.0 0.00 0.00 0.00 32 1017.2
20260503204205 85 230 3.0 11.0 0.00 0.00 0.00 30 1017.2
20260503203702 85 193 6.0 11.0 0.00 0.00 0.00 31 1017.5
20260503203159 85 228 5.0 11.0 0.00 0.00 0.00 31 1017.4
20260503202656 84 226 5.0 11.0 0.00 0.00 0.00 31 1017.7
20260503202154 86 279 3.0 6.0 0.00 0.00 0.00 32 1017.8
20260503201652 84 203 3.0 8.0 0.00 0.00 0.00 31 1017.9
20260503201149 85 236 3.0 7.0 0.00 0.00 0.00 33 1017.9
20260503200645 85 272 4.0 8.0 0.00 0.00 0.00 30 1018.0
20260503200141 84 254 3.0 10.0 0.00 0.00 0.00 32 1018.1